INTELSAT 10-02 (28358 NORAD) Tracking and Keplerian Element Data

This shows tracking and keplerian element data for the satellite.

Feedback or suggestion? Click here.




ElementValue
Catalog28358
NameINTELSAT 10-02
Epoch Orbit6691
Epoch Day269.29424424
Epoch Year2022
RAAN213.9402
Inclination0.0184
Eccentricity9.44E-05
Argument of Perigee351.2512
Mean Anonmoly264.8473
Mean Motion1.00272622
Decay Rate-8E-08
L11 28358U 04022A 22269.29424424 -.00000008 00000+0 00000+0 0 9993
L22 28358 0.0184 213.9402 0000944 351.2512 264.8473 1.00272622 66916

Live tracking and technical data element details for INTELSAT 10-02 (NORAD 28358). INTELSAT 10-02 can be tracked NOW for your location showing map with azimuth and elevation plus other details from your city location.

Track the satellite on the map from your city or location and see movement details for azimuth, elevation, latitude, longitude, range, height, and movement on the map or in text.







IsCatalogInMostPopularTable: catalog: 28358, numindb: 630
Update: records affected: 1



GetName: 28358 INTELSAT 10-02

Hit Count: updated at: Thu, 29 Sep 2022 12:21:13 GMT